Regional Weather Roundup
Issued by NWS Green Bay, WI

Home | Current Version | Previous Version | Text Only | Print | Product List | Glossary On
Versions: 1 2 3 4 5 6 7 8 9 10 11 12 13 14 15 16 17 18 19 20 21 22 23 24 25 26 27 28 29 30 31 32 33 34 35 36 37 38 39 40 41 42 43 44 45 46 47 48 49 50
000
ASUS43 KGRB 310000
RWRGRB

NORTH-CENTRAL AND NORTHEAST WISCONSIN REGIONAL WEATHER ROUNDUP
NATIONAL WEATHER SERVICE GREEN BAY WI
700 PM CDT THU JUL 30 2015

WIZ005-009-010>012-018-019-310100-
NORTH CENTRAL WISCONSIN

CITY           SKY/WX    TMP DP  RH WIND       PRES   REMARKS
IRONWOOD       SUNNY     75  61  60 W9        29.88S
MANITOWISH WTR NOT AVBL
ARBOR VITAE    NOT AVBL
EAGLE RIVER    NOT AVBL
LAND O LAKES   NOT AVBL
RHINELANDER    SUNNY     74  57  55 SW7       29.97F
PHILLIPS       SUNNY     76  57  52 W7        29.96S
ANTIGO         NOT AVBL
TOMAHAWK       NOT AVBL
MERRILL        NOT AVBL
$$

WIZ013-073-310100-
NORTHEAST WISCONSIN

CITY           SKY/WX    TMP DP  RH WIND       PRES   REMARKS
IRON MOUNTAIN  MOSUNNY   74  56  53 W10       29.91F
MARINETTE      PTSUNNY   70  57  64 NW6G18    29.93R
$$

WIZ017-030-035>037-045-310100-
CENTRAL WISCONSIN

CITY           SKY/WX    TMP DP  RH WIND       PRES   REMARKS
MEDFORD        NOT AVBL
WAUSAU         CLOUDY    73  55  53 N6        29.96R
MOSINEE        MOSUNNY   79  54  41 W20G28    29.98F
MARSHFIELD     MOSUNNY   79  54  41 W14       29.99S
WISC RAPIDS    MOSUNNY   82  51  34 NW14G22   29.99S
STEVENS POINT  NOT AVBL
WAUPACA        NOT AVBL
SHAWANO        NOT AVBL
CLINTONVILLE   PTSUNNY   77  52  41 NW7       29.94S
$$

WIZ038-039-048-051-310100-
FOX VALLEY

CITY           SKY/WX    TMP DP  RH WIND       PRES   REMARKS
NWS GREEN BAY  MOSUNNY   79  60  52 W8        29.93S
APPLETON       MOSUNNY   81  48  32 W15G21    29.95F
OSHKOSH        SUNNY     82  53  36 W14G20    29.95S
FOND DU LAC    SUNNY     82  55  39 W12       29.95F
$$

WIZ022-050-052-310100-
EAST CENTRAL WISCONSIN

CITY           SKY/WX    TMP DP  RH WIND       PRES   REMARKS
STURGEON BAY   PTSUNNY   73  57  56 SW8G29    29.93S
MANITOWOC      NOT AVBL
SHEBOYGAN      SUNNY     82  54  37 W10       29.94S
$$

LMZ563-521-522-541>543-310100-
LAKESHORE

STATION/POSITION TIME  TEMP    WIND        PRES    VSBY  WAVE
                       AIR SEA DIR/SP/G                  HT/PER
                 (UTC) (F)     (DEG/KT/KT) (MB)    (MI)  (FT/S)
SHEBOYGAN LKSHOR 2300   84     290/ 17/ 22 1013.6S
KEWAUNEE LKSHORE 2300   83     280/ 13/ 19 1012.8R
ALGOMA MARINA    2342          260/  6/ 11   N/A
NORTHPORT PIER   2300   80     260/  3/  8 1011.5F
N MID LAKE BUOY  2250   72 69  270/  6/  6 1011.5R         2/ 5
S GREEN BAY BUOY 2300   74 70  260/ 10/ 12 1014.1S
SISTER BAY LKSHO 2314   78     320/  9/ 11   N/A
CHAMBERS ISLAND  2300   76     230/  3/  6 1011.9S
MENOMINEE LKSHOR 2300   79     310/  7/ 10 1013.2S
$$



USA.gov is the U.S. government's official web portal to all federal, state and local government web resources and services.